Year,Month,Day,Hour,Minute,Value (Times are PST for temperature in C)
2018,05,14,00,00,16.10
2018,05,14,00,01,16.10
2018,05,14,00,02,16.10
2018,05,14,00,03,16.10
2018,05,14,00,04,16.10
2018,05,14,00,05,16.00
2018,05,14,00,06,16.00
2018,05,14,00,07,15.90
2018,05,14,00,08,15.90
2018,05,14,00,09,15.80
2018,05,14,00,10,15.80
2018,05,14,00,11,15.80
2018,05,14,00,12,15.80
2018,05,14,00,13,15.70
2018,05,14,00,14,15.70
2018,05,14,00,15,15.70
2018,05,14,00,16,15.60
2018,05,14,00,17,15.60
2018,05,14,00,18,15.50
2018,05,14,00,19,15.50
2018,05,14,00,20,15.50
2018,05,14,00,21,15.40
2018,05,14,00,22,15.40
2018,05,14,00,23,15.30
2018,05,14,00,24,15.30
2018,05,14,00,25,15.30
2018,05,14,00,26,15.20
2018,05,14,00,27,15.10
2018,05,14,00,28,15.10
2018,05,14,00,29,15.00
2018,05,14,00,30,15.00
2018,05,14,00,31,15.00
2018,05,14,00,32,14.90
2018,05,14,00,33,14.90
2018,05,14,00,34,14.80
2018,05,14,00,35,14.80
2018,05,14,00,36,14.80
2018,05,14,00,37,14.70
2018,05,14,00,38,14.70
2018,05,14,00,39,14.70
2018,05,14,00,40,14.70
2018,05,14,00,41,14.70
2018,05,14,00,42,14.70
2018,05,14,00,43,14.70
2018,05,14,00,44,14.70
2018,05,14,00,45,14.70
2018,05,14,00,46,14.70
2018,05,14,00,47,14.70
2018,05,14,00,48,14.60
2018,05,14,00,49,14.60
2018,05,14,00,50,14.60
2018,05,14,00,51,14.60
2018,05,14,00,52,14.50
2018,05,14,00,53,14.50
2018,05,14,00,54,14.40
2018,05,14,00,55,14.40
2018,05,14,00,56,14.40
2018,05,14,00,57,14.30
2018,05,14,00,58,14.30
2018,05,14,00,59,14.30
2018,05,14,01,00,14.30
2018,05,14,01,01,14.30
2018,05,14,01,02,14.20
2018,05,14,01,03,14.20
2018,05,14,01,04,14.20
2018,05,14,01,05,14.20
2018,05,14,01,06,14.20
2018,05,14,01,07,14.10
2018,05,14,01,08,14.10
2018,05,14,01,09,14.10
2018,05,14,01,10,14.00
2018,05,14,01,11,14.00
2018,05,14,01,12,14.00
2018,05,14,01,13,13.90
2018,05,14,01,14,13.90
2018,05,14,01,15,13.90
2018,05,14,01,16,13.90
2018,05,14,01,17,13.80
2018,05,14,01,18,13.80
2018,05,14,01,19,13.80
2018,05,14,01,20,13.80
2018,05,14,01,21,13.80
2018,05,14,01,22,13.80
2018,05,14,01,23,13.70
2018,05,14,01,24,13.70
2018,05,14,01,25,13.70
2018,05,14,01,26,13.70
2018,05,14,01,27,13.70
2018,05,14,01,28,13.70
2018,05,14,01,29,13.70
2018,05,14,01,30,13.70
2018,05,14,01,31,13.70
2018,05,14,01,32,13.60
2018,05,14,01,33,13.60
2018,05,14,01,34,13.60
2018,05,14,01,35,13.60
2018,05,14,01,36,13.60
2018,05,14,01,37,13.60
2018,05,14,01,38,13.60
2018,05,14,01,39,13.60
2018,05,14,01,40,13.60
2018,05,14,01,41,13.60
2018,05,14,01,42,13.60
2018,05,14,01,43,13.60
2018,05,14,01,44,13.50
2018,05,14,01,45,13.50
2018,05,14,01,46,13.50
2018,05,14,01,47,13.40
2018,05,14,01,48,13.40
2018,05,14,01,49,13.40
2018,05,14,01,50,13.40
2018,05,14,01,51,13.40
2018,05,14,01,52,13.30
2018,05,14,01,53,13.30
2018,05,14,01,54,13.30
2018,05,14,01,55,13.30
2018,05,14,01,56,13.30
2018,05,14,01,57,13.20
2018,05,14,01,58,13.20
2018,05,14,01,59,13.20
2018,05,14,02,00,13.10
2018,05,14,02,01,13.10
2018,05,14,02,02,13.10
2018,05,14,02,03,13.10
2018,05,14,02,04,13.00
2018,05,14,02,05,13.00
2018,05,14,02,06,12.90
2018,05,14,02,07,12.90
2018,05,14,02,08,12.80
2018,05,14,02,09,12.80
2018,05,14,02,10,12.80
2018,05,14,02,11,12.70
2018,05,14,02,12,12.70
2018,05,14,02,13,12.70
2018,05,14,02,14,12.70
2018,05,14,02,15,12.70
2018,05,14,02,16,12.70
2018,05,14,02,17,12.70
2018,05,14,02,18,12.70
2018,05,14,02,19,12.70
2018,05,14,02,20,12.70
2018,05,14,02,21,12.70
2018,05,14,02,22,12.70
2018,05,14,02,23,12.70
2018,05,14,02,24,12.70
2018,05,14,02,25,12.70
2018,05,14,02,26,12.70
2018,05,14,02,27,12.70
2018,05,14,02,28,12.70
2018,05,14,02,29,12.70
2018,05,14,02,30,12.70
2018,05,14,02,31,12.60
2018,05,14,02,32,12.60
2018,05,14,02,33,12.60
2018,05,14,02,34,12.60
2018,05,14,02,35,12.60
2018,05,14,02,36,12.60
2018,05,14,02,37,12.50
2018,05,14,02,38,12.50
2018,05,14,02,39,12.50
2018,05,14,02,40,12.40
2018,05,14,02,41,12.40
2018,05,14,02,42,12.40
2018,05,14,02,43,12.40
2018,05,14,02,44,12.40
2018,05,14,02,45,12.40
2018,05,14,02,46,12.40
2018,05,14,02,47,12.40
2018,05,14,02,48,12.40
2018,05,14,02,49,12.30
2018,05,14,02,50,12.30
2018,05,14,02,51,12.30
2018,05,14,02,52,12.30
2018,05,14,02,53,12.30
2018,05,14,02,54,12.20
2018,05,14,02,55,12.20
2018,05,14,02,56,12.20
2018,05,14,02,57,12.20
2018,05,14,02,58,12.20
2018,05,14,02,59,12.10
2018,05,14,03,00,12.10
2018,05,14,03,01,12.10
2018,05,14,03,02,12.00
2018,05,14,03,03,12.00
2018,05,14,03,04,12.00
2018,05,14,03,05,11.90
2018,05,14,03,06,11.90
2018,05,14,03,07,11.90
2018,05,14,03,08,11.90
2018,05,14,03,09,11.90
2018,05,14,03,10,11.90
2018,05,14,03,11,11.80
2018,05,14,03,12,11.80
2018,05,14,03,13,11.80
2018,05,14,03,14,11.80
2018,05,14,03,15,11.80
2018,05,14,03,16,11.80
2018,05,14,03,17,11.80
2018,05,14,03,18,11.80
2018,05,14,03,19,11.80
2018,05,14,03,20,11.70
2018,05,14,03,21,11.70
2018,05,14,03,22,11.70
2018,05,14,03,23,11.70
2018,05,14,03,24,11.70
2018,05,14,03,25,11.60
2018,05,14,03,26,11.60
2018,05,14,03,27,11.60
2018,05,14,03,28,11.60
2018,05,14,03,29,11.50
2018,05,14,03,30,11.50
2018,05,14,03,31,11.50
2018,05,14,03,32,11.50
2018,05,14,03,33,11.40
2018,05,14,03,34,11.40
2018,05,14,03,35,11.40
2018,05,14,03,36,11.40
2018,05,14,03,37,11.40
2018,05,14,03,38,11.30
2018,05,14,03,39,11.30
2018,05,14,03,40,11.30
2018,05,14,03,41,11.40
2018,05,14,03,42,11.40
2018,05,14,03,43,11.40
2018,05,14,03,44,11.40
2018,05,14,03,45,11.40
2018,05,14,03,46,11.40
2018,05,14,03,47,11.40
2018,05,14,03,48,11.40
2018,05,14,03,49,11.40
2018,05,14,03,50,11.40
2018,05,14,03,51,11.40
2018,05,14,03,52,11.40
2018,05,14,03,53,11.30
2018,05,14,03,54,11.30
2018,05,14,03,55,11.30
2018,05,14,03,56,11.30
2018,05,14,03,57,11.30
2018,05,14,03,58,11.30
2018,05,14,03,59,11.30
2018,05,14,04,00,11.40
2018,05,14,04,01,11.40
2018,05,14,04,02,11.30
2018,05,14,04,03,11.30
2018,05,14,04,04,11.30
2018,05,14,04,05,11.30
2018,05,14,04,06,11.30
2018,05,14,04,07,11.30
2018,05,14,04,08,11.30
2018,05,14,04,09,11.20
2018,05,14,04,10,11.20
2018,05,14,04,11,11.20
2018,05,14,04,12,11.20
2018,05,14,04,13,11.20
2018,05,14,04,14,11.10
2018,05,14,04,15,11.10
2018,05,14,04,16,11.10
2018,05,14,04,17,11.10
2018,05,14,04,18,11.00
2018,05,14,04,19,11.00
2018,05,14,04,20,11.00
2018,05,14,04,21,11.00
2018,05,14,04,22,11.00
2018,05,14,04,23,10.90
2018,05,14,04,24,10.90
2018,05,14,04,25,10.90
2018,05,14,04,26,10.90
2018,05,14,04,27,10.90
2018,05,14,04,28,10.90
2018,05,14,04,29,10.90
2018,05,14,04,30,10.90
2018,05,14,04,31,11.00
2018,05,14,04,32,10.90
2018,05,14,04,33,10.90
2018,05,14,04,34,11.00
2018,05,14,04,35,11.00
2018,05,14,04,36,11.00
2018,05,14,04,37,11.00
2018,05,14,04,38,11.00
2018,05,14,04,39,11.00
2018,05,14,04,40,11.00
2018,05,14,04,41,10.90
2018,05,14,04,42,10.90
2018,05,14,04,43,10.90
2018,05,14,04,44,10.90
2018,05,14,04,45,10.90
2018,05,14,04,46,10.90
2018,05,14,04,47,10.90
2018,05,14,04,48,10.90
2018,05,14,04,49,10.90
2018,05,14,04,50,10.80
2018,05,14,04,51,10.80
2018,05,14,04,52,10.80
2018,05,14,04,53,10.80
2018,05,14,04,54,10.80
2018,05,14,04,55,10.80
2018,05,14,04,56,10.70
2018,05,14,04,57,10.70
2018,05,14,04,58,10.70
2018,05,14,04,59,10.70
2018,05,14,05,00,10.70
2018,05,14,05,01,10.70
2018,05,14,05,02,10.60
2018,05,14,05,03,10.60
2018,05,14,05,04,10.60
2018,05,14,05,05,10.60
2018,05,14,05,06,10.60
2018,05,14,05,07,10.50
2018,05,14,05,08,10.50
2018,05,14,05,09,10.50
2018,05,14,05,10,10.40
2018,05,14,05,11,10.40
2018,05,14,05,12,10.40
2018,05,14,05,13,10.40
2018,05,14,05,14,10.30
2018,05,14,05,15,10.30
2018,05,14,05,16,10.30
2018,05,14,05,17,10.30
2018,05,14,05,18,10.30
2018,05,14,05,19,10.20
2018,05,14,05,20,10.20
2018,05,14,05,21,10.20
2018,05,14,05,22,10.20
2018,05,14,05,23,10.20
2018,05,14,05,24,10.30
2018,05,14,05,25,10.30
2018,05,14,05,26,10.30
2018,05,14,05,27,10.30
2018,05,14,05,28,10.30
2018,05,14,05,29,10.30
2018,05,14,05,30,10.30
2018,05,14,05,31,10.30
2018,05,14,05,32,10.20
2018,05,14,05,33,10.20
2018,05,14,05,34,10.20
2018,05,14,05,35,10.20
2018,05,14,05,36,10.20
2018,05,14,05,37,10.20
2018,05,14,05,38,10.10
2018,05,14,05,39,10.10
2018,05,14,05,40,10.10
2018,05,14,05,41,10.10
2018,05,14,05,42,10.10
2018,05,14,05,43,10.10
2018,05,14,05,44,10.10
2018,05,14,05,45,10.10
2018,05,14,05,46,10.10
2018,05,14,05,47,10.10
2018,05,14,05,48,10.00
2018,05,14,05,49,10.00
2018,05,14,05,50,9.90
2018,05,14,05,51,9.90
2018,05,14,05,52,9.90
2018,05,14,05,53,9.90
2018,05,14,05,54,9.90
2018,05,14,05,55,9.90
2018,05,14,05,56,9.90
2018,05,14,05,57,9.90
2018,05,14,05,58,9.90
2018,05,14,05,59,9.90
2018,05,14,06,00,9.90
2018,05,14,06,01,9.90
2018,05,14,06,02,9.90
2018,05,14,06,03,9.90
2018,05,14,06,04,9.90
2018,05,14,06,05,9.90
2018,05,14,06,06,9.90
2018,05,14,06,07,10.00
2018,05,14,06,08,9.90
2018,05,14,06,09,9.90
2018,05,14,06,10,10.00
2018,05,14,06,11,10.00
2018,05,14,06,12,10.00
2018,05,14,06,13,10.00
2018,05,14,06,14,10.00
2018,05,14,06,15,10.00
2018,05,14,06,16,10.00
2018,05,14,06,17,10.00
2018,05,14,06,18,10.00
2018,05,14,06,19,10.00
2018,05,14,06,20,10.00
2018,05,14,06,21,10.00
2018,05,14,06,22,10.00
2018,05,14,06,23,10.00
2018,05,14,06,24,10.00
2018,05,14,06,25,10.10
2018,05,14,06,26,10.10
2018,05,14,06,27,10.10
2018,05,14,06,28,10.10
2018,05,14,06,29,10.10
2018,05,14,06,30,10.10
2018,05,14,06,31,10.10
2018,05,14,06,32,10.10
2018,05,14,06,33,10.10
2018,05,14,06,34,10.20
2018,05,14,06,35,10.20
2018,05,14,06,36,10.20
2018,05,14,06,37,10.20
2018,05,14,06,38,10.20
2018,05,14,06,39,10.20
2018,05,14,06,40,10.20
2018,05,14,06,41,10.30
2018,05,14,06,42,10.30
2018,05,14,06,43,10.30
2018,05,14,06,44,10.30
2018,05,14,06,45,10.30
2018,05,14,06,46,10.30
2018,05,14,06,47,10.30
2018,05,14,06,48,10.40
2018,05,14,06,49,10.40
2018,05,14,06,50,10.40
2018,05,14,06,51,10.50
2018,05,14,06,52,10.50
2018,05,14,06,53,10.60
2018,05,14,06,54,10.60
2018,05,14,06,55,10.60
2018,05,14,06,56,10.70
2018,05,14,06,57,10.70
2018,05,14,06,58,10.70
2018,05,14,06,59,10.80
2018,05,14,07,00,10.80
2018,05,14,07,01,10.80
2018,05,14,07,02,10.80
2018,05,14,07,03,10.90
2018,05,14,07,04,10.90
2018,05,14,07,05,10.90
2018,05,14,07,06,11.00
2018,05,14,07,07,11.00
2018,05,14,07,08,11.10
2018,05,14,07,09,11.10
2018,05,14,07,10,11.10
2018,05,14,07,11,11.20
2018,05,14,07,12,11.30
2018,05,14,07,13,11.30
2018,05,14,07,14,11.40
2018,05,14,07,15,11.50
2018,05,14,07,16,11.60
2018,05,14,07,17,11.70
2018,05,14,07,18,11.80
2018,05,14,07,19,11.80
2018,05,14,07,20,11.90
2018,05,14,07,21,12.00
2018,05,14,07,22,12.00
2018,05,14,07,23,12.10
2018,05,14,07,24,12.10
2018,05,14,07,25,12.10
2018,05,14,07,26,12.20
2018,05,14,07,27,12.20
2018,05,14,07,28,12.20
2018,05,14,07,29,12.20
2018,05,14,07,30,12.20
2018,05,14,07,31,12.20
2018,05,14,07,32,12.20
2018,05,14,07,33,12.20
2018,05,14,07,34,12.20
2018,05,14,07,35,12.40
2018,05,14,07,36,12.60
2018,05,14,07,37,12.70
2018,05,14,07,38,12.70
2018,05,14,07,39,12.70
2018,05,14,07,40,12.80
2018,05,14,07,41,12.80
2018,05,14,07,42,12.90
2018,05,14,07,43,13.00
2018,05,14,07,44,13.10
2018,05,14,07,45,13.30
2018,05,14,07,46,13.40
2018,05,14,07,47,13.50
2018,05,14,07,48,13.60
2018,05,14,07,49,13.70
2018,05,14,07,50,13.70
2018,05,14,07,51,13.90
2018,05,14,07,52,14.00
2018,05,14,07,53,14.10
2018,05,14,07,54,14.20
2018,05,14,07,55,14.20
2018,05,14,07,56,14.30
2018,05,14,07,57,14.30
2018,05,14,07,58,14.30
2018,05,14,07,59,14.30
2018,05,14,08,00,14.30
2018,05,14,08,01,14.40
2018,05,14,08,02,14.40
2018,05,14,08,03,14.40
2018,05,14,08,04,14.50
2018,05,14,08,05,14.60
2018,05,14,08,06,14.70
2018,05,14,08,07,14.70
2018,05,14,08,08,14.80
2018,05,14,08,09,14.80
2018,05,14,08,10,14.90
2018,05,14,08,11,14.90
2018,05,14,08,12,14.90
2018,05,14,08,13,15.00
2018,05,14,08,14,15.10
2018,05,14,08,15,15.10
2018,05,14,08,16,15.20
2018,05,14,08,17,15.20
2018,05,14,08,18,15.30
2018,05,14,08,19,15.30
2018,05,14,08,20,15.30
2018,05,14,08,21,15.30
2018,05,14,08,22,15.30
2018,05,14,08,23,15.30
2018,05,14,08,24,15.30
2018,05,14,08,25,15.30
2018,05,14,08,26,15.30
2018,05,14,08,27,15.30
2018,05,14,08,28,15.40
2018,05,14,08,29,15.40
2018,05,14,08,30,15.50
2018,05,14,08,31,15.60
2018,05,14,08,32,15.70
2018,05,14,08,33,15.70
2018,05,14,08,34,15.80
2018,05,14,08,35,15.80
2018,05,14,08,36,15.90
2018,05,14,08,37,15.90
2018,05,14,08,38,16.00
2018,05,14,08,39,16.10
2018,05,14,08,40,16.20
2018,05,14,08,41,16.20
2018,05,14,08,42,16.30
2018,05,14,08,43,16.40
2018,05,14,08,44,16.40
2018,05,14,08,45,16.40
2018,05,14,08,46,16.50
2018,05,14,08,47,16.50
2018,05,14,08,48,16.60
2018,05,14,08,49,16.60
2018,05,14,08,50,16.70
2018,05,14,08,51,16.70
2018,05,14,08,52,16.80
2018,05,14,08,53,16.80
2018,05,14,08,54,16.90
2018,05,14,08,55,17.00
2018,05,14,08,56,17.00
2018,05,14,08,57,17.10
2018,05,14,08,58,17.10
2018,05,14,08,59,17.20
2018,05,14,09,00,17.20
2018,05,14,09,01,17.20
2018,05,14,09,02,17.30
2018,05,14,09,03,17.30
2018,05,14,09,04,17.30
2018,05,14,09,05,17.40
2018,05,14,09,06,17.50
2018,05,14,09,07,17.50
2018,05,14,09,08,17.60
2018,05,14,09,09,17.70
2018,05,14,09,10,17.80
2018,05,14,09,11,17.80
2018,05,14,09,12,17.90
2018,05,14,09,13,17.90
2018,05,14,09,14,18.00
2018,05,14,09,15,18.00
2018,05,14,09,16,18.10
2018,05,14,09,17,18.10
2018,05,14,09,18,18.10
2018,05,14,09,19,18.20
2018,05,14,09,20,18.20
2018,05,14,09,21,18.20
2018,05,14,09,22,18.20
2018,05,14,09,23,18.20
2018,05,14,09,24,18.20
2018,05,14,09,25,18.20
2018,05,14,09,26,18.20
2018,05,14,09,27,18.30
2018,05,14,09,28,18.30
2018,05,14,09,29,18.40
2018,05,14,09,30,18.40
2018,05,14,09,31,18.50
2018,05,14,09,32,18.60
2018,05,14,09,33,18.70
2018,05,14,09,34,18.70
2018,05,14,09,35,18.80
2018,05,14,09,36,18.90
2018,05,14,09,37,19.00
2018,05,14,09,38,19.00
2018,05,14,09,39,19.10
2018,05,14,09,40,19.10
2018,05,14,09,41,19.10
2018,05,14,09,42,19.00
2018,05,14,09,43,19.00
2018,05,14,09,44,19.10
2018,05,14,09,45,19.10
2018,05,14,09,46,19.10
2018,05,14,09,47,19.20
2018,05,14,09,48,19.20
2018,05,14,09,49,19.30
2018,05,14,09,50,19.40
2018,05,14,09,51,19.50
2018,05,14,09,52,19.60
2018,05,14,09,53,19.60
2018,05,14,09,54,19.70
2018,05,14,09,55,19.70
2018,05,14,09,56,19.70
2018,05,14,09,57,19.70
2018,05,14,09,58,19.80
2018,05,14,09,59,19.80
2018,05,14,10,00,19.90
2018,05,14,10,01,19.90
2018,05,14,10,02,20.00
2018,05,14,10,03,20.10
2018,05,14,10,04,20.20
2018,05,14,10,05,20.30
2018,05,14,10,06,20.30
2018,05,14,10,07,20.40
2018,05,14,10,08,20.40
2018,05,14,10,09,20.50
2018,05,14,10,10,20.60
2018,05,14,10,11,20.60
2018,05,14,10,12,20.70
2018,05,14,10,13,20.70
2018,05,14,10,14,20.60
2018,05,14,10,15,20.60
2018,05,14,10,16,20.60
2018,05,14,10,17,20.60
2018,05,14,10,18,20.60
2018,05,14,10,19,20.60
2018,05,14,10,20,20.60
2018,05,14,10,21,20.70
2018,05,14,10,22,20.70
2018,05,14,10,23,20.70
2018,05,14,10,24,20.70
2018,05,14,10,25,20.70
2018,05,14,10,26,20.60
2018,05,14,10,27,20.60
2018,05,14,10,28,20.70
2018,05,14,10,29,20.70
2018,05,14,10,30,20.70
2018,05,14,10,31,20.80
2018,05,14,10,32,20.80
2018,05,14,10,33,20.80
2018,05,14,10,34,20.90
2018,05,14,10,35,20.80
2018,05,14,10,36,20.80
2018,05,14,10,37,20.80
2018,05,14,10,38,20.90
2018,05,14,10,39,21.00
2018,05,14,10,40,21.00
2018,05,14,10,41,21.10
2018,05,14,10,42,21.20
2018,05,14,10,43,21.20
2018,05,14,10,44,21.30
2018,05,14,10,45,21.40
2018,05,14,10,46,21.40
2018,05,14,10,47,21.40
2018,05,14,10,48,21.50
2018,05,14,10,49,21.50
2018,05,14,10,50,21.50
2018,05,14,10,51,21.60
2018,05,14,10,52,21.60
2018,05,14,10,53,21.60
2018,05,14,10,54,21.70
2018,05,14,10,55,21.70
2018,05,14,10,56,21.70
2018,05,14,10,57,21.60
2018,05,14,10,58,21.70
2018,05,14,10,59,21.60
2018,05,14,11,00,21.60
2018,05,14,11,01,21.60
2018,05,14,11,02,21.60
2018,05,14,11,03,21.70
2018,05,14,11,04,21.80
2018,05,14,11,05,21.80
2018,05,14,11,06,21.90
2018,05,14,11,07,22.00
2018,05,14,11,08,22.10
2018,05,14,11,09,22.30
2018,05,14,11,10,22.40
2018,05,14,11,11,22.50
2018,05,14,11,12,22.60
2018,05,14,11,13,22.60
2018,05,14,11,14,22.60
2018,05,14,11,15,22.60
2018,05,14,11,16,22.60
2018,05,14,11,17,22.60
2018,05,14,11,18,22.60
2018,05,14,11,19,22.60
2018,05,14,11,20,22.60
2018,05,14,11,21,22.60
2018,05,14,11,22,22.60
2018,05,14,11,23,22.60
2018,05,14,11,24,22.60
2018,05,14,11,25,22.60
2018,05,14,11,26,22.70
2018,05,14,11,27,22.70
2018,05,14,11,28,22.80
2018,05,14,11,29,22.90
2018,05,14,11,30,23.00
2018,05,14,11,31,23.10
2018,05,14,11,32,23.20
2018,05,14,11,33,23.30
2018,05,14,11,34,23.30
2018,05,14,11,35,23.30
2018,05,14,11,36,23.40
2018,05,14,11,37,23.50
2018,05,14,11,38,23.50
2018,05,14,11,39,23.50
2018,05,14,11,40,23.50
2018,05,14,11,41,23.50
2018,05,14,11,42,23.50
2018,05,14,11,43,23.50
2018,05,14,11,44,23.60
2018,05,14,11,45,23.60
2018,05,14,11,46,23.60
2018,05,14,11,47,23.70
2018,05,14,11,48,23.70
2018,05,14,11,49,23.70
2018,05,14,11,50,23.70
2018,05,14,11,51,23.70
2018,05,14,11,52,23.80
2018,05,14,11,53,23.80
2018,05,14,11,54,23.90
2018,05,14,11,55,23.90
2018,05,14,11,56,24.00
2018,05,14,11,57,24.10
2018,05,14,11,58,24.20
2018,05,14,11,59,24.30
2018,05,14,12,00,24.30
2018,05,14,12,01,24.40
2018,05,14,12,02,24.40
2018,05,14,12,03,24.50
2018,05,14,12,04,24.50
2018,05,14,12,05,24.60
2018,05,14,12,06,24.70
2018,05,14,12,07,24.80
2018,05,14,12,08,24.90
2018,05,14,12,09,25.00
2018,05,14,12,10,25.20
2018,05,14,12,11,25.20
2018,05,14,12,12,25.30
2018,05,14,12,13,25.30
2018,05,14,12,14,25.50
2018,05,14,12,15,25.70
2018,05,14,12,16,25.80
2018,05,14,12,17,25.80
2018,05,14,12,18,25.80
2018,05,14,12,19,25.70
2018,05,14,12,20,25.70
2018,05,14,12,21,25.70
2018,05,14,12,22,25.60
2018,05,14,12,23,25.60
2018,05,14,12,24,25.60
2018,05,14,12,25,25.70
2018,05,14,12,26,25.80
2018,05,14,12,27,26.00
2018,05,14,12,28,26.10
2018,05,14,12,29,26.30
2018,05,14,12,30,26.40
2018,05,14,12,31,26.50
2018,05,14,12,32,26.60
2018,05,14,12,33,26.80
2018,05,14,12,34,26.90
2018,05,14,12,35,27.00
2018,05,14,12,36,27.10
2018,05,14,12,37,27.10
2018,05,14,12,38,27.20
2018,05,14,12,39,27.20
2018,05,14,12,40,27.30
2018,05,14,12,41,27.20
2018,05,14,12,42,27.10
2018,05,14,12,43,27.00
2018,05,14,12,44,27.00
2018,05,14,12,45,27.10
2018,05,14,12,46,27.10
2018,05,14,12,47,27.10
2018,05,14,12,48,27.10
2018,05,14,12,49,27.10
2018,05,14,12,50,27.10
2018,05,14,12,51,27.10
2018,05,14,12,52,27.20
2018,05,14,12,53,27.20
2018,05,14,12,54,27.20
2018,05,14,12,55,27.30
2018,05,14,12,56,27.40
2018,05,14,12,57,27.40
2018,05,14,12,58,27.40
2018,05,14,12,59,27.30
2018,05,14,13,00,27.30
2018,05,14,13,01,27.20
2018,05,14,13,02,27.20
2018,05,14,13,03,27.10
2018,05,14,13,04,27.10
2018,05,14,13,05,27.10
2018,05,14,13,06,27.20
2018,05,14,13,07,27.30
2018,05,14,13,08,27.40
2018,05,14,13,09,27.60
2018,05,14,13,10,27.70
2018,05,14,13,11,27.80
2018,05,14,13,12,27.90
2018,05,14,13,13,28.00
2018,05,14,13,14,28.00
2018,05,14,13,15,28.00
2018,05,14,13,16,28.00
2018,05,14,13,17,28.20
2018,05,14,13,18,28.30
2018,05,14,13,19,28.30
2018,05,14,13,20,28.30
2018,05,14,13,21,28.40
2018,05,14,13,22,28.40
2018,05,14,13,23,28.50
2018,05,14,13,24,28.60
2018,05,14,13,25,28.70
2018,05,14,13,26,28.80
2018,05,14,13,27,28.90
2018,05,14,13,28,29.00
2018,05,14,13,29,29.20
2018,05,14,13,30,29.30
2018,05,14,13,31,29.40
2018,05,14,13,32,29.30
2018,05,14,13,33,29.30
2018,05,14,13,34,29.30
2018,05,14,13,35,29.30
2018,05,14,13,36,29.30
2018,05,14,13,37,29.30
2018,05,14,13,38,29.30
2018,05,14,13,39,29.40
2018,05,14,13,40,29.50
2018,05,14,13,41,29.60
2018,05,14,13,42,29.70
2018,05,14,13,43,29.70
2018,05,14,13,44,29.60
2018,05,14,13,45,29.50
2018,05,14,13,46,29.50
2018,05,14,13,47,29.50
2018,05,14,13,48,29.60
2018,05,14,13,49,29.70
2018,05,14,13,50,29.90
2018,05,14,13,51,30.00
2018,05,14,13,52,30.10
2018,05,14,13,53,30.10
2018,05,14,13,54,30.00
2018,05,14,13,55,30.00
2018,05,14,13,56,29.90
2018,05,14,13,57,29.90
2018,05,14,13,58,30.00
2018,05,14,13,59,30.10
2018,05,14,14,00,30.10
2018,05,14,14,01,30.10
2018,05,14,14,02,30.10
2018,05,14,14,03,30.00
2018,05,14,14,04,30.00
2018,05,14,14,05,29.80
2018,05,14,14,06,29.80
2018,05,14,14,07,29.90
2018,05,14,14,08,29.90
2018,05,14,14,09,29.90
2018,05,14,14,10,30.00
2018,05,14,14,11,29.90
2018,05,14,14,12,29.90
2018,05,14,14,13,29.90
2018,05,14,14,14,29.80
2018,05,14,14,15,29.80
2018,05,14,14,16,29.80
2018,05,14,14,17,29.90
2018,05,14,14,18,29.90
2018,05,14,14,19,29.90
2018,05,14,14,20,30.00
2018,05,14,14,21,30.00
2018,05,14,14,22,29.90
2018,05,14,14,23,29.80
2018,05,14,14,24,29.80
2018,05,14,14,25,29.80
2018,05,14,14,26,29.80
2018,05,14,14,27,29.80
2018,05,14,14,28,29.80
2018,05,14,14,29,29.80
2018,05,14,14,30,29.80
2018,05,14,14,31,29.80
2018,05,14,14,32,29.70
2018,05,14,14,33,29.60
2018,05,14,14,34,29.60
2018,05,14,14,35,29.60
2018,05,14,14,36,29.60
2018,05,14,14,37,29.70
2018,05,14,14,38,29.80
2018,05,14,14,39,29.80
2018,05,14,14,40,29.80
2018,05,14,14,41,29.90
2018,05,14,14,42,30.00
2018,05,14,14,43,30.00
2018,05,14,14,44,30.00
2018,05,14,14,45,30.00
2018,05,14,14,46,30.00
2018,05,14,14,47,29.90
2018,05,14,14,48,29.90
2018,05,14,14,49,29.90
2018,05,14,14,50,29.80
2018,05,14,14,51,29.70
2018,05,14,14,52,29.70
2018,05,14,14,53,29.80
2018,05,14,14,54,29.90
2018,05,14,14,55,30.00
2018,05,14,14,56,30.10
2018,05,14,14,57,30.10
2018,05,14,14,58,30.10
2018,05,14,14,59,30.10
2018,05,14,15,00,30.10
2018,05,14,15,01,30.10
2018,05,14,15,02,30.20
2018,05,14,15,03,30.20
2018,05,14,15,04,30.30
2018,05,14,15,05,30.30
2018,05,14,15,06,30.30
2018,05,14,15,07,30.20
2018,05,14,15,08,30.20
2018,05,14,15,09,30.20
2018,05,14,15,10,30.10
2018,05,14,15,11,30.20
2018,05,14,15,12,30.20
2018,05,14,15,13,30.20
2018,05,14,15,14,30.30
2018,05,14,15,15,30.40
2018,05,14,15,16,30.40
2018,05,14,15,17,30.40
2018,05,14,15,18,30.40
2018,05,14,15,19,30.40
2018,05,14,15,20,30.30
2018,05,14,15,21,30.30
2018,05,14,15,22,30.20
2018,05,14,15,23,30.10
2018,05,14,15,24,30.00
2018,05,14,15,25,30.00
2018,05,14,15,26,30.00
2018,05,14,15,27,30.10
2018,05,14,15,28,30.20
2018,05,14,15,29,30.20
2018,05,14,15,30,30.30
2018,05,14,15,31,30.30
2018,05,14,15,32,30.20
2018,05,14,15,33,30.10
2018,05,14,15,34,30.00
2018,05,14,15,35,30.00
2018,05,14,15,36,29.90
2018,05,14,15,37,29.90
2018,05,14,15,38,29.90
2018,05,14,15,39,29.90
2018,05,14,15,40,29.90
2018,05,14,15,41,29.90
2018,05,14,15,42,29.90
2018,05,14,15,43,29.90
2018,05,14,15,44,29.80
2018,05,14,15,45,29.80
2018,05,14,15,46,29.70
2018,05,14,15,47,29.70
2018,05,14,15,48,29.80
2018,05,14,15,49,29.80
2018,05,14,15,50,29.90
2018,05,14,15,51,29.90
2018,05,14,15,52,29.90
2018,05,14,15,53,29.90
2018,05,14,15,54,29.90
2018,05,14,15,55,29.90
2018,05,14,15,56,29.90
2018,05,14,15,57,29.80
2018,05,14,15,58,29.80
2018,05,14,15,59,29.80
2018,05,14,16,00,29.80
2018,05,14,16,01,29.80
2018,05,14,16,02,29.70
2018,05,14,16,03,29.70
2018,05,14,16,04,29.70
2018,05,14,16,05,29.60
2018,05,14,16,06,29.60
2018,05,14,16,07,29.60
2018,05,14,16,08,29.60
2018,05,14,16,09,29.60
2018,05,14,16,10,29.60
2018,05,14,16,11,29.60
2018,05,14,16,12,29.60
2018,05,14,16,13,29.60
2018,05,14,16,14,29.60
2018,05,14,16,15,29.60
2018,05,14,16,16,29.60
2018,05,14,16,17,29.50
2018,05,14,16,18,29.50
2018,05,14,16,19,29.60
2018,05,14,16,20,29.60
2018,05,14,16,21,29.60
2018,05,14,16,22,29.60
2018,05,14,16,23,29.60
2018,05,14,16,24,29.60
2018,05,14,16,25,29.70
2018,05,14,16,26,29.70
2018,05,14,16,27,29.70
2018,05,14,16,28,29.70
2018,05,14,16,29,29.70
2018,05,14,16,30,29.70
2018,05,14,16,31,29.80
2018,05,14,16,32,29.70
2018,05,14,16,33,29.70
2018,05,14,16,34,29.70
2018,05,14,16,35,29.70
2018,05,14,16,36,29.70
2018,05,14,16,37,29.70
2018,05,14,16,38,29.70
2018,05,14,16,39,29.70
2018,05,14,16,40,29.70
2018,05,14,16,41,29.70
2018,05,14,16,42,29.70
2018,05,14,16,43,29.70
2018,05,14,16,44,29.70
2018,05,14,16,45,29.70
2018,05,14,16,46,29.80
2018,05,14,16,47,29.80
2018,05,14,16,48,29.80
2018,05,14,16,49,29.90
2018,05,14,16,50,29.90
2018,05,14,16,51,29.80
2018,05,14,16,52,29.80
2018,05,14,16,53,29.70
2018,05,14,16,54,29.70
2018,05,14,16,55,29.70
2018,05,14,16,56,29.70
2018,05,14,16,57,29.70
2018,05,14,16,58,29.70
2018,05,14,16,59,29.70
2018,05,14,17,00,29.60
2018,05,14,17,01,29.70
2018,05,14,17,02,29.70
2018,05,14,17,03,29.70
2018,05,14,17,04,29.60
2018,05,14,17,05,29.40
2018,05,14,17,06,29.30
2018,05,14,17,07,29.30
2018,05,14,17,08,29.30
2018,05,14,17,09,29.30
2018,05,14,17,10,29.30
2018,05,14,17,11,29.30
2018,05,14,17,12,29.40
2018,05,14,17,13,29.40
2018,05,14,17,14,29.40
2018,05,14,17,15,29.40
2018,05,14,17,16,29.50
2018,05,14,17,17,29.50
2018,05,14,17,18,29.40
2018,05,14,17,19,29.40
2018,05,14,17,20,29.40